Date,TemperatureHighF,TemperatureAvgF,TemperatureLowF,DewpointHighF,DewpointAvgF,DewpointLowF,HumidityHigh,HumidityAvg,HumidityLow,PressureMaxIn,PressureMinIn,WindSpeedMaxMPH,WindSpeedAvgMPH,GustSpeedMaxMPH,PrecipitationSumIn
2013-4-1,35,27,20,14,11,7,69,52,32,30.21,30.02,13,4,13,0.00
2013-4-2,38,27,19,17,12,5,72,54,25,30.38,30.21,10,2,10,0.00
2013-4-3,44,29,9,24,13,4,84,56,27,30.48,30.12,21,3,21,0.00
2013-4-4,49,40,28,33,25,18,80,58,35,30.17,30.00,14,3,14,0.00
2013-4-5,41,32,20,30,19,14,91,62,34,30.30,30.11,9,2,9,0.00
2013-4-6,45,36,32,35,31,28,95,85,60,30.10,29.58,12,3,12,0.26
2013-4-7,42,35,31,34,32,28,95,88,70,29.98,29.68,6,1,6,0.10
2013-4-8,41,37,32,39,36,30,97,95,91,30.08,29.80,4,0,4,0.85
2013-4-9,41,36,33,35,30,18,97,79,50,30.19,30.04,12,3,12,0.00
2013-4-10,41,36,30,27,22,16,72,59,42,30.25,30.04,14,3,14,0.00
2013-4-11,36,32,28,29,24,16,93,74,48,30.06,29.78,16,6,16,0.01
2013-4-12,37,30,27,30,27,24,94,88,75,29.83,29.71,8,2,8,0.16
2013-4-13,38,29,22,25,23,18,89,78,55,30.03,29.83,9,2,9,0.07
2013-4-14,38,28,14,33,24,11,95,85,58,30.05,29.67,13,1,13,0.60
2013-4-15,40,36,34,34,31,28,95,82,70,29.93,29.61,20,4,20,0.01
2013-4-16,47,38,28,32,29,25,87,72,44,30.39,29.93,12,3,12,0.00
2013-4-17,43,35,26,32,28,24,92,77,58,30.42,30.03,10,2,10,0.01
2013-4-18,35,33,31,33,32,29,96,94,91,30.02,29.36,16,3,16,0.35
2013-4-19,33,28,17,30,26,14,95,89,76,29.98,29.31,16,3,16,0.19
2013-4-20,41,24,6,22,14,3,92,68,33,30.41,29.98,12,2,12,0.00
2013-4-21,38,33,24,37,28,19,95,84,77,30.43,30.14,20,4,20,0.17
2013-4-22,48,39,32,38,32,22,95,79,45,30.24,30.09,10,2,10,0.02
2013-4-23,44,35,25,33,27,21,96,75,46,30.10,30.03,10,2,10,0.42
2013-4-24,49,34,20,34,25,15,92,71,42,30.05,29.91,18,3,18,0.00
2013-4-25,50,37,26,32,28,22,94,71,36,30.22,29.96,14,2,14,0.00
2013-4-26,67,47,32,44,37,28,95,70,40,30.19,30.06,13,2,13,0.12
2013-4-27,73,50,30,47,37,28,96,68,28,30.16,29.94,10,2,10,0.00
2013-4-28,74,55,36,53,43,34,97,68,35,29.94,29.69,16,3,16,0.36
2013-4-29,75,58,43,53,48,42,98,74,35,29.79,29.62,8,2,8,0.07
2013-4-30,81,62,45,60,48,35,98,65,32,29.90,29.44,22,4,22,0.00